Salt Lake City, UT

2:49 PM MST on December 09, 2016 (GMT -0700)
Salt Lake City International

Weather History for KSLC - July, 2013

Change the Weather History Date:

Saturday, July 6, 2013

  Actual Average Record
Temperature  
Mean Temperature 82 °F 77 °F  
Max Temperature 94 °F 91 °F 103 °F (2007)
Min Temperature 70 °F 63 °F 44 °F (1938)
Degree Days  
Heating Degree Days 0 0  
Month to date heating degree days 0 0  
Since 1 June heating degree days 4 46  
Since 1 July heating degree days 0 0  
Cooling Degree Days 17 12  
Month to date cooling degree days 117 68  
Year to date cooling degree days 510 305  
Since 1 June cooling degree days 440 255  
Growing Degree Days 32 (Base 50)    
Moisture  
Dew Point 55 °F    
Average Humidity 41    
Maximum Humidity 61    
Minimum Humidity 21    
Precipitation  
Precipitation T in 0.02 in 0.52 in (1937)
Month to date precipitation 0.71 0.09  
Year to date precipitation 6.83 9.30  
Snow  
Snow 0.00 in 0.00 in - ()
Month to date snowfall 0.0 0.0  
Since 1 July snowfall 0.0 0.0  
Snow Depth 0.00 in    
Sea Level Pressure  
Sea Level Pressure 29.80 in    
Wind  
Wind Speed 10 mph (SSE)    
Max Wind Speed 23 mph    
Max Gust Speed 29 mph    
Visibility 10 miles    
Events Rain , Thunderstorm    
T = Trace of Precipitation, MM = Missing Value Source: NWS Daily Summary

Daily Weather History Graph

Daily Weather History Graph

Search for Another Location

Airport or City:

Trip Planner

Search our weather history database for the weather conditions in past years. The results will help you decide how hot, cold, wet, or windy it might be!

Date:

Astronomy

Jul. 06, 2013 Rise Set
Actual Time 6:03 AM MDT 9:01 PM MDT
Civil Twilight 5:30 AM MDT 9:34 PM MDT
Nautical Twilight 4:48 AM MDT 10:16 PM MDT
Astronomical Twilight 3:59 AM MDT 11:05 PM MDT
Moon 4:52 AM MDT (7/6) 7:45 PM MDT (7/6)
Length of Visible Light 16h 04m
Length of Day
14h 58m
Waning Crescent, 2% of the Moon is Illuminated
Jul 6
Waning Crescent
Jul 8
New
Jul 15
First Quarter
Jul 22
Full
Jul 29
Last Quarter

Hourly Weather History & Observations

Time (MDT) Temp. Heat Index Dew Point Humidity Pressure Visibility Wind Dir Wind Speed Gust Speed Precip Events Conditions
12:53 AM 73.0 °F - 57.9 °F 59% 29.75 in 10.0 mi SSE 8.1 mph - N/A   Mostly Cloudy
1:53 AM 72.0 °F - 57.9 °F 61% 29.76 in 10.0 mi SSE 10.4 mph - N/A   Mostly Cloudy
2:53 AM 72.0 °F - 57.0 °F 59% 29.76 in 10.0 mi SSE 16.1 mph - N/A   Mostly Cloudy
3:53 AM 72.0 °F - 57.0 °F 59% 29.76 in 10.0 mi SSE 11.5 mph - N/A   Mostly Cloudy
4:53 AM 70.0 °F - 57.0 °F 63% 29.76 in 10.0 mi SE 3.5 mph - N/A   Mostly Cloudy
5:53 AM 72.0 °F - 55.9 °F 57% 29.76 in 10.0 mi SE 5.8 mph - N/A   Mostly Cloudy
6:53 AM 72.0 °F - 55.9 °F 57% 29.79 in 10.0 mi South 5.8 mph - N/A   Mostly Cloudy
7:53 AM 73.9 °F - 57.0 °F 55% 29.80 in 10.0 mi South 9.2 mph - N/A   Mostly Cloudy
8:53 AM 77.0 °F - 54.0 °F 45% 29.80 in 10.0 mi South 17.3 mph 25.3 mph N/A   Mostly Cloudy
9:53 AM 77.0 °F - 55.9 °F 48% 29.81 in 10.0 mi SSE 9.2 mph - N/A   Mostly Cloudy
10:53 AM 80.1 °F 80.0 °F 54.0 °F 40% 29.81 in 10.0 mi SSE 11.5 mph - N/A   Mostly Cloudy
11:53 AM 80.1 °F 80.1 °F 55.0 °F 42% 29.81 in 10.0 mi SSE 8.1 mph - N/A   Mostly Cloudy
12:53 PM 82.9 °F 81.9 °F 54.0 °F 37% 29.79 in 10.0 mi SSE 12.7 mph - N/A   Mostly Cloudy
1:53 PM 87.1 °F 84.9 °F 53.1 °F 31% 29.75 in 10.0 mi South 13.8 mph - N/A   Mostly Cloudy
2:53 PM 93.0 °F - 48.9 °F 22% 29.70 in 10.0 mi South 13.8 mph - N/A   Scattered Clouds
3:53 PM 91.0 °F - 48.0 °F 23% 29.68 in 10.0 mi SE 11.5 mph - N/A   Mostly Cloudy
4:53 PM 90.0 °F - 48.9 °F 24% 29.66 in 10.0 mi SE 5.8 mph - N/A   Mostly Cloudy
5:53 PM 75.9 °F - 57.9 °F 54% 29.72 in 10.0 mi South 15.0 mph - 0.00 in Rain , Thunderstorm Light Thunderstorms and Rain
6:27 PM 75.2 °F - 57.2 °F 53% 29.92 in 10.0 mi Variable 4.6 mph - 0.11 in   Overcast
6:53 PM 73.9 °F - 59.0 °F 59% 29.82 in 10.0 mi NNW 15.0 mph 24.2 mph 0.11 in Rain Light Rain
6:59 PM 73.4 °F - 59.0 °F 61% 29.96 in 10.0 mi North 15.0 mph 25.3 mph 0.00 in Rain Light Rain
7:53 PM 73.0 °F - 55.9 °F 55% 29.82 in 10.0 mi South 9.2 mph - 0.00 in   Overcast
8:53 PM 73.0 °F - 57.9 °F 59% 29.85 in 10.0 mi NNW 17.3 mph 26.5 mph 0.00 in Rain Light Rain
8:56 PM 71.6 °F - 57.2 °F 60% 29.98 in 10.0 mi North 20.7 mph 28.8 mph 0.00 in Rain Light Rain
9:03 PM 71.6 °F - 57.2 °F 60% 29.97 in 10.0 mi North 17.3 mph 28.8 mph 0.00 in Rain Light Rain
9:34 PM 73.4 °F - 55.4 °F 53% 29.97 in 10.0 mi SE 12.7 mph 19.6 mph 0.00 in   Mostly Cloudy
9:53 PM 73.0 °F - 55.9 °F 55% 29.82 in 10.0 mi South 15.0 mph - 0.00 in   Mostly Cloudy
10:53 PM 73.9 °F - 52.0 °F 46% 29.76 in 10.0 mi ESE 16.1 mph - N/A   Mostly Cloudy
11:53 PM 73.0 °F - 55.0 °F 53% 29.77 in 10.0 mi South 11.5 mph - N/A   Mostly Cloudy